Terminal Aerodrome Forecast
Issued by NWS Missoula, MT

Home | Current Version | Previous Version | Text Only | Print | Product List | Glossary On
Versions: 1 2 3 4 5 6 7 8 9 10 11 12 13 14
000
FTUS45 KMSO 192327
TAFMSO
TAF
KMSO 192327Z 2000/2024 27006KT P6SM SKC
     FM201100 00000KT P6SM VCFG SKC
     FM201400 VRB04KT P6SM SKC=

USA.gov is the U.S. government's official web portal to all federal, state and local government web resources and services.